Weather History for LEGR - December, 2013

Change the Weather History Date:

Sunday, December 1, 2013

  Actual Average Record
Temperature  
Mean Temperature 45 °F -  
Max Temperature 55 °F 54 °F 66 °F (1996)
Min Temperature 35 °F 34 °F 23 °F (1998)
Degree Days  
Heating Degree Days 20    
Moisture  
Dew Point 27 °F    
Average Humidity 48    
Maximum Humidity 75    
Minimum Humidity 24    
Precipitation  
Precipitation 0.00 in - - ()
Sea Level Pressure  
Sea Level Pressure 29.99 in    
Wind  
Wind Speed 11 mph ()    
Max Wind Speed 21 mph    
Max Gust Speed 29 mph    
Visibility 12.3 miles    
Events      
Averages and records for this station are not official NWS values.
T = Trace of Precipitation, MM = Missing Value Source: Averaged Metar Reports

Daily Weather History Graph

Daily Weather History Graph

Search for Another Location

Airport or City:

Trip Planner

Search our weather history database for the weather conditions in past years. The results will help you decide how hot, cold, wet, or windy it might be!

Date:

Astronomy

Dec. 01, 2013 Rise Set
Actual Time 8:10 AM CET 5:58 PM CET
Civil Twilight 7:41 AM CET 6:26 PM CET
Nautical Twilight 7:09 AM CET 6:58 PM CET
Astronomical Twilight 6:37 AM CET 7:30 PM CET
Moon 6:14 AM CET (12/1) 4:54 PM CET (12/1)
Length of Visible Light 10h 45m
Length of Day
9h 47m
Waning Crescent, 3% of the Moon is Illuminated
Dec 1
Waning Crescent
Dec 3
New
Dec 9
First Quarter
Dec 17
Full
Dec 25
Last Quarter

Hourly Weather History & Observations

Time (CET) Temp. Windchill Dew Point Humidity Pressure Visibility Wind Dir Wind Speed Gust Speed Precip Events Conditions
12:00 AM 45 °F - 31 °F 46% 29.98 in 19 mi NNE 5.8 mph - -  
1:00 AM 46 °F - 27 °F 35% 29.97 in 19 mi ENE 11.5 mph - -  
2:00 AM 42 °F - 24 °F 36% 29.97 in 19 mi NNE 11.5 mph - -  
3:00 AM 40 °F - 24 °F 40% 29.98 in 19 mi NE 10.4 mph - -  
5:00 AM 38 °F - 24 °F 45% 29.98 in 19 mi NE 15.0 mph - -  
6:00 AM 37 °F - 25 °F 49% 29.99 in 19 mi NE 15.0 mph - -  
6:00 AM 37.4 °F 28.9 °F 24.8 °F 60% 29.92 in - NE 13.8 mph - N/A   Clear
6:30 AM 37.4 °F 29.3 °F 26.6 °F 65% 29.92 in - NNE 12.7 mph - N/A   Clear
7:00 AM 36 °F - 25 °F 52% 30.01 in 19 mi NE 15.0 mph - -  
7:00 AM 37.4 °F 28.9 °F 24.8 °F 60% 29.95 in - NE 13.8 mph - N/A   Clear
7:30 AM 37.4 °F 28.2 °F 24.8 °F 60% 29.92 in - NE 16.1 mph - N/A   Clear
8:00 AM 36 °F - 24 °F 48% 30.03 in 19 mi NNE 13.8 mph - -   Scattered Clouds
8:00 AM 37.4 °F 29.8 °F 24.8 °F 60% 29.95 in 6.2 mi NNE 11.5 mph - N/A   Partly Cloudy
8:30 AM 37.4 °F 29.3 °F 24.8 °F 60% 29.95 in 6.2 mi NNE 12.7 mph - N/A   Partly Cloudy
9:00 AM 38 °F - 23 °F 41% 30.05 in 19 mi NNE 17.3 mph - -  
9:00 AM 39.2 °F 30.8 °F 24.8 °F 56% 29.98 in 6.2 mi NE 15.0 mph - N/A   Partly Cloudy
9:30 AM 41.0 °F 33.1 °F 23.0 °F 49% 29.98 in 6.2 mi NE 15.0 mph - N/A   Partly Cloudy
10:00 AM 42.8 °F 35.4 °F 23.0 °F 46% 29.98 in 6.2 mi NNE 15.0 mph - N/A   Partly Cloudy
10:30 AM 44.6 °F 38.4 °F 24.8 °F 46% 30.01 in 6.2 mi NNE 12.7 mph - N/A   Partly Cloudy
11:00 AM 46 °F - 24 °F 28% 30.04 in 19 mi NNE 17.3 mph - -  
11:00 AM 46.4 °F 39.8 °F 23.0 °F 40% 30.01 in 6.2 mi NNE 16.1 mph - N/A   Partly Cloudy
11:30 AM 50.0 °F - 26.6 °F 40% 29.98 in 6.2 mi NNE 12.7 mph - N/A   Partly Cloudy
12:00 PM 51 °F - 25 °F 24% 29.99 in 19 mi NE 11.5 mph - -  
12:00 PM 51.8 °F - 26.6 °F 38% 29.98 in 6.2 mi NE 10.4 mph - N/A   Partly Cloudy
12:30 PM 53.6 °F - 28.4 °F 38% 29.95 in 6.2 mi NE 16.1 mph 28.8 mph N/A   Partly Cloudy
1:00 PM 54 °F - 28 °F 24% 29.94 in 19 mi NE 18.4 mph - -   Scattered Clouds
1:00 PM 53.6 °F - 30.2 °F 41% 29.95 in 6.2 mi NE 18.4 mph - N/A   Partly Cloudy
1:30 PM 55.4 °F - 28.4 °F 36% 29.95 in 6.2 mi ENE 10.4 mph - N/A   Partly Cloudy
2:00 PM 54 °F - 29 °F 25% 29.95 in 19 mi NNE 20.7 mph - -   Scattered Clouds
2:00 PM 53.6 °F - 30.2 °F 41% 29.95 in 6.2 mi NNE 19.6 mph - N/A   Partly Cloudy
2:30 PM 55.4 °F - 30.2 °F 38% 29.95 in 6.2 mi NNE 17.3 mph - N/A   Partly Cloudy
3:00 PM 54 °F - 29 °F 26% 29.94 in 19 mi NE 13.8 mph - -  
3:00 PM 55.4 °F - 30.2 °F 38% 29.95 in 6.2 mi NE 13.8 mph - N/A   Partly Cloudy
3:30 PM 55.4 °F - 30.2 °F 38% 29.95 in 6.2 mi NE 15.0 mph - N/A   Partly Cloudy
4:00 PM 53.6 °F - 30.2 °F 41% 29.95 in 6.2 mi NE 13.8 mph - N/A   Partly Cloudy
4:30 PM 53.6 °F - 30.2 °F 41% 29.95 in 6.2 mi NNE 11.5 mph - N/A   Partly Cloudy
5:00 PM 52 °F - 29 °F 29% 29.98 in 19 mi NNE 13.8 mph - -  
5:00 PM 51.8 °F - 30.2 °F 44% 29.98 in 6.2 mi NNE 12.7 mph - N/A   Partly Cloudy
5:30 PM 51.8 °F - 30.2 °F 44% 29.98 in 6.2 mi NE 11.5 mph - N/A   Partly Cloudy
6:00 PM 50 °F - 29 °F 32% 30.00 in 19 mi NE 11.5 mph - -  
6:00 PM 50.0 °F - 30.2 °F 47% 29.98 in 6.2 mi NE 12.7 mph - N/A   Partly Cloudy
6:30 PM 48.2 °F - 30.2 °F 50% 29.98 in 6.2 mi NNE 5.8 mph - N/A   Partly Cloudy
7:00 PM 47 °F - 29 °F 38% 30.03 in 19 mi NE 5.8 mph - -   Scattered Clouds
7:00 PM 48.2 °F - 30.2 °F 50% 30.01 in - NE 5.8 mph - N/A   Clear
7:30 PM 42.8 °F - 30.2 °F 61% 30.01 in - Variable 1.2 mph - N/A   Clear
8:00 PM 43 °F - 28 °F 44% 30.07 in 19 mi NE 3.5 mph - -  
8:00 PM 42.8 °F 41.1 °F 30.2 °F 61% 30.01 in - NE 3.5 mph - N/A   Clear
8:30 PM 37.4 °F - 30.2 °F 75% 30.04 in - Calm Calm - N/A   Clear
9:00 PM 38 °F - 29 °F 58% 30.12 in 19 mi Calm Calm - -  
9:00 PM 37.4 °F - 30.2 °F 75% 30.04 in - Calm Calm - N/A   Clear
9:30 PM 35.6 °F 32.8 °F 28.4 °F 75% 30.04 in - SW 3.5 mph - N/A   Clear
10:00 PM 37.4 °F - 30.2 °F 75% 30.06 in - Variable 2.3 mph - N/A   Clear
10:30 PM 35.6 °F 30.7 °F 28.4 °F 75% 30.06 in - SW 5.8 mph - N/A   Clear
11:00 PM 35 °F - 28 °F 68% 30.15 in 19 mi SW 6.9 mph - -  
11:00 PM 35.6 °F 30.7 °F 28.4 °F 75% 30.06 in - SW 5.8 mph - N/A   Clear